DW8248 Weather Reports


Display with metric or nautical units.
time (UTC)temp
F
wind
direction
speed
MPH
gust
MPH
rain 1hr
in
rain 24hr
in
rain mn
in
humidity
%
barometer
mb
20171022023747 80 104 7.0 14.0 0.00 0.12 0.12 80 1019.5
20171022022802 80 90 6.0 13.0 0.00 0.12 0.12 80 1019.4
20171022021755 80 117 6.0 13.0 0.00 0.12 0.12 79 1019.3
20171022020743 80 87 6.0 15.0 0.00 0.12 0.12 79 1019.1
20171022015713 80 103 8.0 15.0 0.00 0.12 0.12 79 1019.0
20171022014648 80 86 6.0 13.0 0.00 0.12 0.12 79 1018.9
20171022013651 80 98 5.0 13.0 0.00 0.12 0.12 78 1018.9
20171022012659 80 113 5.0 13.0 0.00 0.12 0.12 79 1018.9
20171022011639 80 84 6.0 13.0 0.00 0.12 0.12 79 1018.8
20171022010612 80 107 5.0 11.0 0.00 0.12 0.12 79 1018.8
20171022005607 80 84 5.0 11.0 0.00 0.12 0.12 79 1018.8
20171022004538 80 107 5.0 11.0 0.00 0.12 0.12 78 1018.9
20171022003552 80 91 6.0 11.0 0.00 0.12 0.12 78 1018.9
20171022002520 80 61 5.0 13.0 0.00 0.12 0.12 78 1018.8
20171022001456 80 56 6.0 13.0 0.00 0.12 0.12 77 1018.8
20171022000446 80 92 6.0 12.0 0.00 0.12 0.12 77 1018.7
20171021235505 80 94 5.0 13.0 0.00 0.12 0.12 77 1018.7
20171021234521 80 72 6.0 14.0 0.00 0.12 0.12 77 1018.7
20171021233500 80 74 6.0 14.0 0.00 0.12 0.12 77 1018.6
20171021232451 80 58 6.0 12.0 0.00 0.12 0.12 76 1018.7
20171021231428 80 59 5.0 11.0 0.00 0.12 0.12 76 1018.7
20171021230405 80 87 6.0 11.0 0.00 0.12 0.12 74 1018.5
20171021225337 80 69 4.0 12.0 0.00 0.12 0.12 74 1018.6
20171021224354 80 94 6.0 12.0 0.00 0.12 0.12 75 1018.5
20171021223359 80 49 4.0 12.0 0.00 0.12 0.12 75 1018.5
20171021222407 80 81 5.0 12.0 0.00 0.12 0.12 73 1018.4
20171021221330 80 96 6.0 12.0 0.00 0.12 0.12 74 1018.4
20171021220340 80 98 6.0 13.0 0.00 0.12 0.12 73 1018.4
20171021215319 81 109 5.0 15.0 0.00 0.12 0.12 74 1018.4
20171021214242 80 74 6.0 15.0 0.00 0.12 0.12 74 1018.4
20171021213230 80 119 5.0 12.0 0.00 0.12 0.12 73 1018.2
20171021212200 80 67 5.0 11.0 0.00 0.12 0.12 74 1018.1
20171021211136 81 71 6.0 14.0 0.00 0.12 0.12 73 1018.2
20171021210151 81 95 6.0 14.0 0.00 0.12 0.12 73 1018.0
20171021205146 81 107 6.0 11.0 0.00 0.12 0.12 73 1018.0
20171021204151 81 64 6.0 15.0 0.00 0.12 0.12 73 1018.1
20171021203121 81 117 6.0 15.0 0.00 0.12 0.12 72 1018.1
20171021202121 81 74 7.0 15.0 0.00 0.12 0.12 72 1018.0
20171021201123 81 121 6.0 13.0 0.00 0.12 0.12 73 1018.1
20171021200111 81 92 6.0 13.0 0.00 0.12 0.12 75 1018.0
20171021195051 80 51 7.0 16.0 0.00 0.12 0.12 76 1018.0
20171021194027 80 119 7.0 16.0 0.00 0.12 0.12 79 1018.1
20171021193048 79 111 6.0 13.0 0.00 0.12 0.12 81 1018.1
20171021192047 77 113 4.0 16.0 0.07 0.12 0.12 86 1018.2
20171021191055 77 53 6.0 16.0 0.88 0.10 0.10 85 1018.3
20171021190028 78 74 7.0 16.0 0.18 0.03 0.03 81 1018.3
20171021185004 79 128 8.0 16.0 0.00 0.01 0.01 79 1018.4
20171021183928 80 77 8.0 16.0 0.00 0.00 0.00 77 1018.4
20171021182921 81 103 5.0 12.0 0.00 0.00 0.00 78 1018.5
20171021181859 80 101 6.0 16.0 0.00 0.00 0.00 77 1018.8
20171021180844 80 98 8.0 16.0 0.00 0.00 0.00 76 1018.8
20171021175841 82 88 7.0 15.0 0.00 0.00 0.00 74 1018.8
20171021174840 83 87 6.0 17.0 0.00 0.00 0.00 72 1018.9
20171021173809 83 90 7.0 17.0 0.00 0.00 0.00 72 1019.0
20171021172819 83 53 7.0 15.0 0.00 0.00 0.00 70 1019.1
20171021171822 83 111 7.0 17.0 0.00 0.00 0.00 69 1019.2
20171021170826 83 90 9.0 17.0 0.00 0.00 0.00 69 1019.3
20171021165813 83 74 7.0 15.0 0.00 0.00 0.00 68 1019.5
20171021164750 83 60 7.0 15.0 0.00 0.00 0.00 68 1019.7
20171021163757 83 82 7.0 15.0 0.00 0.00 0.00 67 1019.7
20171021162749 82 96 7.0 15.0 0.00 0.00 0.00 66 1019.8
20171021161811 83 76 8.0 14.0 0.00 0.00 0.00 65 1019.8
20171021160825 82 100 8.0 14.0 0.00 0.00 0.00 66 1019.9
20171021155823 83 99 7.0 15.0 0.00 0.00 0.00 64 1019.9
20171021154819 83 111 8.0 19.0 0.00 0.00 0.00 64 1020.0
20171021153801 83 92 7.0 19.0 0.00 0.00 0.00 63 1019.8
20171021152724 82 68 7.0 17.0 0.00 0.00 0.00 66 1019.8
20171021151707 82 84 7.0 17.0 0.00 0.00 0.00 63 1019.7
20171021150715 82 99 7.0 17.0 0.00 0.00 0.00 65 1019.7
20171021145640 82 109 7.0 17.0 0.00 0.00 0.00 68 1019.6
20171021144643 82 101 7.0 17.0 0.00 0.00 0.00 69 1019.5
20171021143650 82 78 8.0 15.0 0.00 0.00 0.00 69 1019.3
20171021142638 82 97 7.0 18.0 0.00 0.00 0.00 67 1019.4
20171021141615 82 60 8.0 18.0 0.00 0.00 0.00 67 1019.4
20171021140632 81 70 8.0 16.0 0.00 0.00 0.00 67 1019.2
20171021135636 81 86 7.0 16.0 0.00 0.00 0.00 68 1019.1
20171021134623 81 104 7.0 14.0 0.00 0.00 0.00 69 1019.1
20171021133553 80 121 7.0 16.0 0.00 0.00 0.00 68 1019.1
20171021132520 80 61 7.0 16.0 0.00 0.00 0.00 69 1019.0
20171021131519 80 86 6.0 16.0 0.00 0.00 0.00 68 1019.0
20171021130524 80 80 8.0 16.0 0.00 0.00 0.00 68 1018.9
20171021125451 80 112 6.0 14.0 0.00 0.00 0.00 68 1018.7
20171021124512 80 103 6.0 17.0 0.00 0.00 0.00 68 1018.6
20171021123521 79 94 7.0 17.0 0.00 0.00 0.00 65 1018.4
20171021122518 79 90 6.0 14.0 0.00 0.00 0.00 63 1018.3
20171021121539 79 91 5.0 14.0 0.00 0.00 0.00 63 1018.2
20171021120533 79 108 7.0 13.0 0.00 0.00 0.00 62 1018.1
20171021115532 79 69 6.0 15.0 0.00 0.00 0.00 63 1017.9
20171021114534 79 36 7.0 15.0 0.00 0.00 0.00 61 1017.8
20171021113521 79 75 7.0 16.0 0.00 0.00 0.00 63 1017.7
20171021112543 79 92 7.0 16.0 0.00 0.00 0.00 64 1017.7
20171021111605 79 88 7.0 17.0 0.00 0.00 0.00 66 1017.7
20171021110602 79 58 7.0 17.0 0.00 0.00 0.00 67 1017.8
20171021105535 79 85 8.0 15.0 0.00 0.00 0.00 67 1017.5
20171021104552 79 105 7.0 16.0 0.00 0.00 0.00 70 1017.6
20171021103517 79 59 7.0 16.0 0.00 0.00 0.00 69 1017.5
20171021102512 79 80 8.0 15.0 0.00 0.00 0.00 70 1017.3
20171021101435 79 86 8.0 15.0 0.00 0.00 0.00 69 1017.3
20171021100443 79 107 8.0 16.0 0.00 0.00 0.00 70 1017.1
20171021095504 79 67 8.0 16.0 0.00 0.00 0.00 71 1017.1
20171021094430 79 143 8.0 18.0 0.00 0.00 0.00 72 1017.1
20171021093421 79 61 9.0 18.0 0.00 0.00 0.00 72 1017.0
20171021092442 79 96 9.0 21.0 0.00 0.00 0.00 73 1016.8
20171021091446 79 117 9.0 21.0 0.00 0.00 0.00 73 1016.7
20171021090508 79 127 9.0 19.0 0.00 0.00 0.00 74 1016.7
20171021085443 79 113 9.0 19.0 0.00 0.00 0.00 74 1016.5
20171021084455 79 75 9.0 16.0 0.00 0.00 0.00 74 1016.6
20171021083509 79 104 8.0 17.0 0.00 0.00 0.00 74 1016.4
20171021082530 79 111 9.0 17.0 0.00 0.00 0.00 76 1016.5
20171021081539 79 70 8.0 17.0 0.00 0.00 0.00 77 1016.4
20171021080510 79 80 9.0 18.0 0.00 0.00 0.00 76 1016.5
20171021075446 79 119 8.0 19.0 0.00 0.00 0.00 78 1016.5
20171021074412 79 101 10.0 19.0 0.00 0.00 0.00 77 1016.4
20171021073400 79 57 9.0 17.0 0.00 0.00 0.00 78 1016.5
20171021072420 79 78 9.0 18.0 0.00 0.00 0.00 77 1016.5
20171021071401 79 90 9.0 23.0 0.00 0.00 0.00 77 1016.8
20171021070332 79 58 10.0 23.0 0.00 0.00 0.00 77 1016.7
20171021065329 79 90 9.0 17.0 0.00 0.00 0.00 76 1016.8
20171021064338 79 86 9.0 16.0 0.00 0.00 0.00 75 1017.0
20171021063306 79 89 7.0 17.0 0.00 0.00 0.00 75 1017.1
20171021062235 79 83 8.0 17.0 0.00 0.00 0.00 74 1017.3
20171021061252 79 81 7.0 15.0 0.00 0.00 0.00 74 1017.2
20171021060249 79 132 8.0 18.0 0.00 0.00 0.00 74 1017.4
20171021055225 80 69 10.0 19.0 0.00 0.00 0.00 73 1017.4
20171021054209 80 92 10.0 19.0 0.00 0.00 0.00 73 1017.5
20171021053227 80 130 9.0 17.0 0.00 0.00 0.00 74 1017.5
20171021052219 80 124 8.0 16.0 0.00 0.00 0.00 73 1017.6
20171021051158 80 93 8.0 17.0 0.00 0.00 0.00 73 1017.7
20171021050211 80 104 8.0 17.0 0.00 0.00 0.00 76 1017.7
20171021045157 80 120 7.0 15.0 0.00 0.00 0.00 77 1017.8
20171021044132 79 124 9.0 18.0 0.00 0.00 0.00 76 1017.8
20171021043118 79 100 9.0 17.0 0.00 0.00 0.00 76 1017.9
20171021042129 79 86 9.0 17.0 0.00 0.00 0.00 78 1017.9
20171021041147 79 118 9.0 18.0 0.00 0.00 0.00 78 1018.0
20171021040204 80 118 7.0 18.0 0.00 0.00 0.00 78 1018.0
20171021035148 80 121 8.0 18.0 0.00 0.00 0.00 77 1018.0
20171021034130 80 104 8.0 17.0 0.00 0.00 0.00 76 1018.0
20171021033125 79 108 5.0 13.0 0.00 0.00 0.00 79 1018.1
20171021032147 79 119 8.0 17.0 0.00 0.00 0.00 79 1018.1
20171021031113 79 121 7.0 17.0 0.00 0.00 0.00 78 1018.1
20171021030052 79 101 8.0 17.0 0.00 0.00 0.00 77 1018.1
20171021025036 80 113 7.0 15.0 0.00 0.00 0.00 77 1018.1
20171021024035 80 107 7.0 14.0 0.00 0.00 0.00 77 1018.0